Location: Musselshell
(46.5176°N, 108.0911°W)
Time: 12:38:50
(UTC+00:00)

EO-88 - Pass Details

Date: 04 July 2022
Orbit: 453 x 461 km, 97.3° (Epoch: 13 August)

Event Time Altitude Azimuth Distance (km) Brightness Sun altitude
Exits shadow 04:41:25 16° 174° (S) 1,283 ? -12.2°
Maximum altitude 04:44:05 74° 258° (WSW) 493 ? -12.5°
Drops below altitude 10° 04:47:35 10° 344° (NNW) 1,633 ? -12.8°
Sets 04:49:39 0° 346° (NNW) 2,513 ? -13.0°
